GFSGL_sfc_wetblb_060.txt.gz
Wetbulb
46.15 47.02 46.48 46.11 44.27 43.39 42.11 42.51 39.85 37.69 33.67 31.91 31.56 31.65 31.64 31.57 34.94 35.06 34.13 33.80 33.35 32.10 32.77 32.09 30.89 30.70 29.30 28.48 29.11 29.43 29.40 30.92 29.16 29.84 29.76 30.93 29.61 29.96 30.37 31.05 30.47 30.01 30.51
45.80 46.09 45.17 44.81 43.66 41.82 40.94 41.16 38.57 35.38 32.81 31.08 30.71 30.41 30.69 30.75 33.74 34.02 32.23 32.42 31.99 30.93 30.96 30.35 28.76 27.79 27.48 27.73 28.09 28.27 29.18 29.08 29.30 27.10 28.73 28.63 28.13 29.75 29.57 28.72 28.39 28.94 29.46
44.90 44.50 43.75 43.38 41.62 40.46 39.42 39.44 36.87 35.11 31.75 30.33 29.83 29.59 29.67 30.02 32.58 33.06 32.21 32.00 31.89 31.75 30.60 29.51 27.79 27.24 26.02 26.96 27.53 28.18 28.29 26.49 27.61 26.25 26.26 27.40 27.59 28.44 27.93 28.64 29.12 29.57 29.31
43.54 42.85 42.82 42.26 40.76 39.13 38.04 36.91 34.40 33.26 31.00 29.53 29.60 29.81 29.67 29.62 31.78 31.82 31.24 31.02 30.83 30.44 29.88 29.17 27.36 26.87 26.91 26.93 27.21 27.77 27.13 26.31 25.54 24.79 24.72 25.42 26.53 27.26 26.56 25.51 26.44 29.29 28.03
41.59 41.54 41.88 41.67 40.52 38.37 35.75 33.88 32.19 31.39 30.48 29.48 28.95 29.13 29.22 28.94 29.99 30.46 29.96 29.86 29.46 28.77 28.28 27.41 27.59 27.32 28.24 28.73 27.41 27.39 26.03 25.21 25.51 24.89 24.29 24.86 25.02 25.33 24.93 26.63 24.47 26.17 27.22
40.67 40.36 41.17 40.22 37.70 35.59 33.64 32.23 30.03 29.74 29.31 28.44 28.03 27.96 27.80 27.81 31.38 31.71 30.29 28.96 28.50 27.52 26.40 25.88 26.37 26.74 27.25 29.04 29.30 28.93 27.71 26.50 25.78 25.85 25.12 24.08 24.96 25.73 26.33 24.83 24.13 22.83 21.66
38.66 38.16 37.51 36.33 34.36 33.96 32.32 30.58 28.88 28.85 28.48 27.52 27.51 27.46 27.24 27.69 31.93 31.98 30.94 28.28 27.84 27.70 26.14 25.74 25.53 25.71 27.08 27.08 29.47 30.09 29.42 29.01 28.40 26.14 24.26 25.58 25.77 26.98 26.22 24.15 23.67 23.90 23.02
36.33 36.15 35.33 34.02 33.29 32.79 31.42 29.94 29.08 28.41 27.47 27.43 26.99 27.31 27.41 27.36 32.53 32.26 29.94 28.09 27.46 26.79 26.46 26.36 27.12 26.73 25.67 24.76 24.88 25.63 26.68 27.76 28.69 29.38 29.36 28.91 28.24 27.12 25.54 25.29 25.67 25.03 24.15
34.65 35.14 34.51 33.72 32.89 31.72 30.54 29.95 29.08 27.87 27.01 27.08 27.21 26.96 26.81 26.84 32.81 32.37 29.24 27.84 27.11 26.65 26.40 26.72 27.91 26.17 26.30 28.33 24.99 24.41 24.68 24.89 26.33 28.08 28.77 29.14 29.62 29.99 29.84 28.24 25.18 22.48 21.52
33.75 34.51 34.30 33.36 32.31 30.88 30.93 30.25 30.14 29.07 27.41 26.48 26.44 27.18 27.07 27.51 32.41 32.52 30.09 28.37 28.14 27.01 25.62 25.72 27.22 26.98 28.17 29.06 27.57 26.26 24.07 25.07 25.68 25.03 24.50 25.93 27.51 27.18 28.10 27.32 26.28 22.65 20.78
32.93 32.48 31.84 31.96 31.25 31.36 30.95 30.71 29.57 28.03 26.54 25.88 25.50 26.33 26.79 28.80 31.51 33.20 32.82 30.78 31.59 29.95 29.23 27.18 27.73 30.15 30.54 30.51 29.62 27.82 27.23 27.93 26.87 26.80 26.52 25.74 25.18 24.76 24.46 24.19 23.97 21.86 19.39
30.93 30.38 30.37 30.75 30.89 30.64 29.42 29.18 29.22 27.39 26.04 25.52 25.45 25.37 26.68 27.41 31.00 33.25 33.88 33.65 33.71 31.66 30.34 29.68 28.98 30.46 31.33 31.54 30.42 30.54 30.68 30.25 29.70 28.43 26.95 24.20 22.80 22.37 22.40 21.80 20.86 20.33 20.18
28.47 27.51 28.72 29.84 30.16 30.16 29.00 28.25 28.08 28.14 26.41 25.79 25.60 25.67 25.48 26.25 27.73 32.42 33.84 34.87 34.50 31.32 31.21 30.33 29.98 29.92 30.16 29.92 30.38 30.17 29.03 29.01 27.44 24.81 23.53 22.63 22.26 21.02 19.30 18.77 18.68 18.02 16.69
27.36 28.00 28.67 28.69 29.16 29.73 29.95 29.41 29.14 28.42 27.39 26.81 26.89 26.58 26.28 25.79 26.32 28.54 30.77 33.29 33.41 32.95 32.89 31.05 29.75 28.85 28.75 28.68 26.65 25.89 24.54 23.73 22.75 22.15 21.15 20.61 19.73 18.40 16.73 16.55 13.89 13.61 11.73
28.82 27.96 28.73 29.26 30.16 29.39 29.41 29.60 29.10 30.32 30.64 29.36 29.62 30.01 28.79 27.53 27.81 29.26 30.04 30.40 31.28 31.76 26.82 26.90 26.90 25.43 24.07 22.94 21.75 21.06 21.27 20.44 19.56 19.29 17.78 17.02 15.70 14.65 13.92 14.31 12.31 10.43 7.55
27.99 28.84 29.01 29.03 29.39 28.51 28.14 26.36 30.94 30.99 32.40 33.21 32.83 31.76 31.41 31.51 30.91 30.45 30.73 31.26 31.12 29.85 22.96 23.17 22.58 22.89 22.44 21.49 20.02 18.82 17.82 14.74 16.47 15.51 14.29 13.33 12.16 11.41 10.88 11.07 10.57 8.13 5.90
29.03 28.13 27.88 27.36 26.57 26.01 25.67 25.88 25.15 28.19 30.77 30.85 30.22 30.79 29.94 28.43 29.08 30.06 30.44 30.20 29.28 28.16 22.42 21.91 22.91 21.09 20.64 18.32 17.61 15.81 14.55 13.63 11.39 11.42 11.28 10.56 9.95 9.29 7.55 7.75 7.33 6.56 5.51
26.54 25.93 27.73 27.26 27.53 27.00 27.10 27.25 27.38 27.03 25.69 25.40 26.47 26.91 26.57 26.59 27.97 28.54 29.06 27.59 23.99 23.81 21.42 19.60 19.08 18.28 17.00 15.21 13.21 11.82 10.86 9.88 9.13 9.21 8.33 7.91 6.80 6.61 6.01 5.46 5.26 3.49 3.30
25.27 25.00 25.15 25.08 24.92 24.64 24.50 24.64 25.63 25.75 25.46 22.80 23.96 22.64 24.68 27.36 27.23 28.25 26.87 21.65 20.28 17.68 14.89 15.13 15.10 13.59 11.84 10.54 9.35 8.09 7.70 7.70 7.37 6.31 6.05 4.71 4.91 4.23 3.62 3.40 3.08 0.76 0.35
18.27 17.97 20.76 20.93 20.04 20.83 20.77 21.03 20.89 21.34 21.21 20.69 22.05 21.68 19.56 20.17 20.15 16.08 12.64 13.60 15.20 14.92 12.29 12.24 8.83 7.58 7.38 6.55 5.96 5.36 4.31 2.74 3.85 3.33 3.91 4.01 3.98 3.28 2.66 1.59 1.18 1.28 1.79
16.78 15.17 15.06 18.12 18.45 18.44 18.66 19.26 18.79 18.81 18.70 18.59 18.26 13.83 13.19 20.14 16.05 14.50 11.71 10.47 11.19 9.92 7.95 7.63 5.28 4.36 3.68 3.54 3.57 3.10 2.63 4.19 3.35 2.38 2.29 2.13 1.71 0.82 1.42 1.94 1.70 0.59 -0.41
13.47 13.39 13.95 13.53 13.67 14.20 14.10 14.83 15.46 16.08 15.39 14.54 11.18 12.47 16.93 12.86 11.63 10.36 8.70 7.25 5.78 5.82 5.67 5.14 4.12 3.37 2.54 1.96 1.99 2.34 1.75 1.40 2.12 0.69 0.92 -0.29 -0.41 0.35 -0.26 0.02 -0.51 -0.49 -1.02
11.52 10.90 10.33 9.43 9.31 7.09 10.32 10.75 11.91 12.45 11.76 11.82 10.89 10.50 10.36 9.49 7.81 7.30 6.51 4.85 2.36 1.51 0.75 0.41 1.86 0.91 0.67 -0.62 1.02 1.97 1.80 1.21 1.51 1.49 -0.05 -0.39 -0.75 -0.45 -0.75 -0.98 -1.32 -3.48 -3.53
9.53 9.57 8.70 8.08 8.38 8.76 8.79 8.19 6.53 4.70 7.98 7.56 7.85 8.33 7.84 6.39 5.69 4.65 3.41 2.84 1.62 1.08 0.53 -0.81 -0.84 -0.33 0.29 -0.55 -0.93 -1.38 -1.41 -0.57 0.57 -0.91 -2.04 -1.29 -1.40 -2.01 -2.77 -2.65 -3.32 -4.76 -5.90
6.14 6.06 5.75 5.97 6.15 5.77 5.83 5.36 5.28 5.08 5.19 4.94 4.64 4.39 4.29 3.62 2.56 2.27 2.30 1.10 -0.04 0.36 -0.28 -1.61 -1.58 -1.80 -2.41 -3.08 -2.43 -2.69 -2.66 -1.33 -1.47 -3.78 -3.92 -4.10 -3.90 -4.04 -5.20 -5.20 -5.28 -5.16 -7.36
2.45 2.11 1.98 2.61 2.40 2.21 2.65 3.03 2.62 2.38 2.31 2.83 2.49 2.28 2.25 1.88 1.96 2.08 1.15 -0.30 -1.36 -1.46 -1.32 -0.96 -1.17 -2.75 -2.59 -2.37 -2.65 -2.52 -3.48 -1.58 -4.94 -6.26 -4.05 -4.18 -4.95 -5.20 -5.39 -7.27 -8.65 -8.05 -8.09

GFSGL_sfc_wetblb_063.txt.gz
Wetbulb
49.84 49.82 49.72 50.37 50.81 50.82 50.21 48.98 47.01 45.13 40.82 38.01 36.51 34.20 33.80 34.48 34.72 35.48 34.84 34.54 34.62 33.88 34.16 33.07 31.82 31.68 30.19 29.90 30.12 29.77 29.46 30.24 29.32 28.08 29.54 30.30 29.05 29.27 29.51 30.17 30.63 29.47 29.75
49.16 48.68 48.39 49.17 48.61 48.10 47.54 46.19 44.34 41.72 38.56 37.60 35.80 34.75 34.11 32.71 32.89 33.82 32.58 33.18 32.52 31.53 31.76 30.91 29.54 29.28 28.64 28.75 28.49 28.82 29.18 28.56 28.69 27.30 28.57 28.04 27.75 29.45 28.77 28.10 27.83 28.89 28.81
48.19 47.56 47.36 47.38 47.27 46.59 46.04 44.67 42.27 38.73 36.51 36.19 34.34 33.41 32.09 31.48 31.62 32.76 31.92 32.24 31.45 31.75 30.94 29.52 28.19 28.38 27.41 27.42 27.97 27.77 27.80 26.47 27.69 27.03 26.47 27.15 27.21 27.72 27.17 27.63 27.88 28.28 29.58
47.30 46.45 45.82 46.14 45.95 45.94 45.33 43.38 39.76 37.61 35.28 33.91 33.07 32.25 31.39 30.68 30.92 31.26 30.55 31.02 30.65 30.84 30.26 29.53 28.29 28.19 27.62 26.89 26.88 27.20 27.34 26.61 26.47 25.34 25.00 25.32 26.04 27.13 26.34 24.60 24.92 27.51 26.78
46.05 45.24 45.05 45.36 45.31 44.57 43.12 41.26 38.07 36.57 34.91 33.26 31.70 31.24 30.53 29.82 30.12 30.06 29.85 30.16 29.50 28.90 29.16 28.55 28.65 29.11 30.28 29.08 27.23 27.37 27.25 26.75 26.11 25.11 24.18 24.65 24.73 25.01 24.61 25.91 24.42 25.12 25.90
45.19 43.84 44.59 43.22 41.89 40.68 39.15 36.61 34.52 33.27 32.09 30.97 29.80 29.38 29.02 28.89 33.34 33.77 30.88 28.99 28.70 27.74 26.90 27.71 27.96 28.17 29.82 30.64 30.17 30.49 29.00 27.44 26.76 26.52 25.39 24.42 24.90 25.43 25.99 25.15 24.24 22.81 20.63
42.11 40.55 39.36 39.33 38.75 37.93 36.16 33.73 32.36 31.45 30.60 29.59 28.93 28.87 28.55 28.97 33.89 34.03 32.57 28.74 28.09 27.69 27.18 26.97 26.74 28.12 27.71 27.92 30.29 30.61 29.87 30.73 30.55 27.47 25.46 25.34 25.04 26.36 26.42 24.94 24.16 22.97 21.82
39.38 38.39 37.67 37.71 36.30 35.32 33.85 32.30 31.68 30.82 29.37 28.93 28.38 28.66 28.57 28.38 33.78 34.02 31.92 28.40 28.15 28.02 27.64 27.11 27.78 28.30 27.64 26.59 26.42 26.81 27.82 28.03 28.42 28.62 27.65 27.39 28.34 28.04 25.98 25.03 23.63 23.43 25.05
37.42 37.07 36.68 36.29 34.35 33.69 32.09 31.58 31.10 30.18 29.19 28.88 29.10 28.54 28.25 27.85 33.59 33.69 30.18 28.17 27.61 27.33 27.89 27.48 30.17 29.20 30.25 30.35 25.37 25.14 25.21 25.55 28.42 30.69 30.94 30.87 30.65 30.61 29.95 27.98 25.91 24.47 22.12
35.43 35.76 36.07 34.95 33.57 32.97 32.40 31.65 31.38 31.08 29.35 28.23 28.08 28.47 28.37 27.56 33.59 33.00 29.78 28.33 26.99 26.69 27.33 26.67 29.13 30.46 31.74 31.79 27.75 25.70 23.59 24.43 25.15 24.77 24.93 26.27 27.77 27.05 28.72 26.55 25.39 22.31 21.51
34.18 34.20 33.60 33.75 32.75 32.84 32.25 31.70 30.62 29.67 27.67 27.00 26.54 27.28 27.42 29.77 31.51 32.97 30.84 28.54 27.82 27.37 27.04 26.16 27.26 31.48 32.07 32.68 32.23 28.24 26.88 27.88 27.57 26.01 24.82 24.73 25.14 24.72 24.38 24.86 24.22 21.71 18.11
31.83 31.29 31.10 31.30 31.95 31.82 30.72 30.23 30.19 27.91 26.48 25.57 25.08 25.08 26.50 29.21 31.50 33.25 32.35 30.92 31.09 28.95 29.38 29.69 29.04 31.18 32.59 33.80 32.84 32.52 31.50 29.44 27.70 27.05 26.63 26.61 24.16 23.13 23.28 22.20 20.61 19.93 19.51
29.04 27.75 29.64 30.23 30.77 30.57 29.63 28.63 28.00 27.75 26.20 25.00 24.71 24.61 24.78 27.11 30.24 33.46 33.66 32.76 32.71 31.48 32.39 31.68 32.41 32.99 33.45 33.51 34.19 33.36 30.29 29.31 28.07 26.53 25.73 24.17 23.35 21.21 19.63 18.29 18.52 17.60 17.24
27.75 28.17 28.75 28.78 29.42 29.60 30.10 29.40 28.64 27.80 27.05 26.05 25.85 25.91 25.77 25.77 26.97 30.59 31.89 32.70 32.28 33.55 32.46 31.96 31.88 31.58 31.61 30.69 28.15 29.20 27.82 26.90 25.86 24.26 22.91 21.61 19.75 18.11 16.38 15.56 12.52 12.23 8.82
28.48 28.33 29.67 29.43 29.45 29.10 29.23 29.86 29.22 29.84 29.44 27.78 28.39 28.24 26.18 24.90 26.23 28.93 31.11 31.43 32.42 33.10 31.76 31.02 30.02 28.46 26.63 26.17 25.07 23.73 23.16 20.39 20.13 20.69 18.21 17.16 16.98 14.88 13.48 12.91 11.36 7.91 4.48
27.10 27.58 28.40 29.68 29.76 29.22 28.96 29.21 32.64 32.36 32.51 32.96 33.37 32.04 31.38 32.03 31.42 30.45 30.79 31.79 32.73 33.38 27.37 26.47 26.24 25.57 24.48 23.68 22.26 20.48 20.53 17.87 18.15 16.52 14.51 14.00 12.60 11.32 10.28 9.74 8.93 5.21 2.86
30.05 29.13 29.51 29.07 28.66 27.64 27.62 27.63 26.96 30.49 33.21 32.89 33.52 33.60 32.63 32.54 32.64 32.62 32.92 33.15 33.91 33.56 25.69 26.74 25.56 24.60 24.22 23.86 22.01 20.20 17.37 15.79 11.97 12.61 11.98 11.60 10.28 8.08 6.35 5.74 6.13 5.46 1.92
29.63 29.33 29.80 28.91 28.52 28.30 28.38 28.48 28.58 27.04 25.72 25.03 27.98 28.64 29.67 28.18 30.59 31.55 32.35 33.12 29.32 29.96 25.65 23.72 22.91 23.35 21.96 19.21 16.78 14.26 12.74 10.07 10.35 10.36 9.44 8.15 6.77 6.30 5.67 4.17 2.93 -1.05 -1.81
27.85 27.34 28.38 28.54 28.20 27.89 27.55 27.40 27.90 27.81 26.84 23.74 23.13 23.98 25.61 28.09 28.80 29.39 29.83 25.69 24.37 21.34 20.05 20.36 20.35 19.22 16.47 14.85 13.20 11.49 11.77 10.25 8.91 6.94 5.55 5.50 4.86 3.28 -0.03 -0.21 0.69 -0.31 -2.23
20.64 21.89 24.23 24.24 24.35 24.53 24.74 24.45 24.57 24.94 23.69 23.05 23.57 22.48 20.46 21.66 21.62 17.23 18.45 19.65 19.63 18.73 16.00 14.79 12.76 11.67 10.95 9.17 9.34 8.54 6.50 4.41 3.14 2.56 4.44 4.43 3.83 2.11 -0.70 -3.96 -3.86 -3.39 -3.90
19.57 18.50 20.17 21.75 21.44 22.01 22.26 21.81 20.99 21.08 21.23 21.88 19.13 18.38 18.63 23.04 19.87 16.46 13.63 13.68 13.76 12.10 10.07 10.35 7.14 5.96 6.42 7.07 6.03 4.95 4.59 4.82 4.53 4.26 4.18 3.04 1.47 -0.38 -2.68 -1.05 -3.44 -4.65 -6.26
16.90 16.88 16.85 16.84 17.47 16.84 16.93 17.85 18.58 18.35 17.87 16.46 13.15 16.87 17.46 15.94 14.51 12.26 11.05 8.74 7.10 7.26 6.75 6.02 5.38 5.00 4.02 3.54 3.43 3.45 2.98 2.47 3.30 1.66 1.29 0.16 -0.64 -2.78 -5.58 -3.69 -4.98 -4.50 -5.71
15.31 14.43 13.67 12.75 12.72 13.26 13.39 13.85 14.28 14.72 14.17 14.33 13.02 12.44 13.27 11.52 10.13 9.32 7.80 5.79 3.77 2.36 1.19 1.05 1.69 -1.20 -0.75 -1.89 0.15 1.13 2.13 2.18 2.23 1.89 0.36 -1.17 -3.89 -5.32 -6.46 -6.46 -6.03 -8.62 -9.61
11.75 11.47 10.71 9.25 9.71 10.62 10.68 9.93 8.67 5.81 8.91 9.81 10.10 10.22 9.36 7.72 6.61 4.75 3.51 2.98 1.62 -0.07 -1.10 -3.84 -3.33 -3.58 -3.64 -4.05 -3.43 -2.51 -0.04 -0.74 -0.31 -1.19 -3.57 -3.78 -3.99 -5.60 -8.30 -9.17 -9.14 -10.18 -10.61
7.05 6.53 5.90 5.88 6.22 7.08 7.39 6.70 5.99 5.69 5.79 6.05 5.62 5.10 4.39 3.63 2.53 1.71 1.21 -0.48 -3.10 -2.15 -3.03 -4.43 -4.00 -4.64 -5.27 -6.50 -5.15 -5.00 -2.58 1.43 -2.29 -1.94 -5.22 -6.80 -7.11 -8.57 -11.16 -11.81 -12.72 -12.45 -12.48
4.99 5.03 5.03 5.09 4.29 4.03 3.94 3.96 3.54 3.23 2.38 2.78 2.49 2.10 1.51 0.97 0.67 0.46 -0.95 -2.88 -4.10 -4.46 -4.77 -3.88 -3.59 -5.02 -5.72 -5.00 -5.68 -3.85 -2.74 1.04 -2.93 -1.74 -4.78 -5.02 -6.04 -6.09 -7.41 -10.92 -14.16 -14.55 -14.94

GFSGL_sfc_wetblb_069.txt.gz
Wetbulb
44.12 44.50 44.97 45.19 45.77 46.02 46.64 46.34 46.12 44.02 43.68 41.65 41.16 42.15 43.61 44.09 44.94 45.82 45.57 44.14 43.04 42.31 40.81 38.20 35.80 33.13 32.32 31.01 30.84 29.96 29.52 29.48 26.56 25.06 26.89 28.15 28.46 27.98 27.93 28.54 27.95 27.28 27.96
43.64 43.79 43.85 44.50 44.56 44.82 46.02 45.95 44.16 44.10 41.93 41.24 39.91 39.68 40.36 41.51 42.07 43.36 41.81 41.12 41.20 38.86 36.45 34.96 33.63 32.10 30.66 30.53 30.49 29.66 29.76 28.86 27.28 24.45 25.13 25.39 26.03 27.01 26.84 26.23 26.38 27.54 27.07
43.29 43.13 43.13 43.15 43.36 44.34 44.63 43.64 42.76 41.42 39.71 37.90 37.65 38.05 37.90 38.83 39.66 41.10 41.38 39.47 39.67 38.60 35.86 34.04 32.86 30.72 29.15 28.74 28.48 27.56 28.03 28.05 27.69 26.02 23.82 25.09 25.19 25.42 25.18 25.73 25.89 26.12 26.96
42.70 42.46 42.21 43.02 43.63 44.10 43.58 42.08 41.14 39.09 37.25 36.38 35.41 35.10 34.49 35.83 37.71 38.49 38.45 37.76 37.06 36.09 34.52 33.75 31.29 30.32 29.34 28.20 28.01 27.79 27.31 26.83 26.52 25.89 24.13 24.17 24.15 25.17 25.13 24.19 23.66 25.41 25.03
41.69 41.86 42.75 42.73 41.51 41.28 39.55 38.61 37.66 35.70 35.38 34.30 32.71 31.85 31.26 32.04 34.42 34.97 35.56 34.89 34.59 32.40 31.69 30.82 30.08 30.01 31.11 30.23 28.32 27.32 27.10 26.17 25.69 24.68 23.34 23.22 23.35 23.91 23.65 24.45 23.57 24.34 24.51
41.03 40.98 42.51 39.59 37.70 37.12 36.93 36.48 35.54 34.17 32.46 31.74 31.51 31.37 30.25 32.61 35.65 36.67 34.96 33.17 32.71 31.03 29.23 28.60 28.58 29.09 30.69 32.06 32.49 31.42 29.68 26.84 25.18 24.74 24.42 23.84 24.22 24.83 25.12 24.58 24.08 22.76 20.87
36.17 35.70 35.70 35.48 34.94 35.58 35.38 34.73 34.24 33.01 31.00 31.39 30.27 29.54 29.64 30.90 35.66 36.41 35.85 31.94 31.20 30.71 29.43 28.22 27.89 28.92 29.73 30.25 32.58 32.65 31.77 32.28 30.42 27.60 25.66 25.85 25.24 25.85 25.78 24.87 24.62 23.71 21.94
33.58 32.75 32.47 32.99 33.31 32.43 32.21 33.02 31.85 30.43 30.42 29.64 28.42 28.15 28.52 30.24 34.32 36.04 35.14 30.90 30.49 30.09 29.19 28.70 28.55 28.80 29.75 29.19 29.37 28.54 28.37 29.85 30.31 29.44 28.54 27.79 27.01 27.54 27.54 27.12 25.64 23.22 22.15
32.72 33.07 32.54 31.19 31.57 30.29 30.46 30.40 26.89 26.23 25.66 25.36 25.43 25.56 26.71 29.25 33.58 35.30 34.71 29.54 28.99 28.25 28.31 28.90 29.05 28.85 31.56 32.27 28.71 27.63 27.80 28.27 31.78 32.52 31.09 30.95 30.97 31.08 29.50 24.58 19.02 17.38 18.06
31.58 31.87 32.23 31.60 31.15 31.35 29.98 25.94 24.53 23.47 25.71 26.52 25.51 25.08 26.67 29.93 32.65 34.98 34.37 28.86 27.07 26.54 27.45 28.41 29.64 30.05 32.50 32.72 29.24 28.99 27.31 27.57 27.53 27.25 28.07 30.96 32.55 31.95 32.92 26.67 23.74 17.20 15.37
30.13 29.95 29.45 29.08 27.27 26.07 24.06 24.39 23.87 23.12 24.93 26.33 27.47 28.21 28.79 28.99 30.25 34.17 35.14 28.67 27.19 25.86 26.36 27.49 29.23 32.47 32.98 33.42 32.29 29.62 29.31 28.54 28.51 26.02 26.00 26.15 25.99 25.23 24.27 24.70 24.36 20.61 14.80
26.12 26.64 26.90 23.68 25.72 25.22 21.72 22.38 26.90 26.72 26.59 25.62 26.05 25.69 26.44 27.41 30.58 33.87 34.66 30.54 29.99 26.77 26.42 28.22 29.92 33.83 34.60 35.43 32.18 32.34 33.58 30.66 27.37 26.74 24.42 23.44 23.34 23.18 23.22 22.04 21.72 20.58 19.76
24.30 25.69 23.12 19.54 21.62 20.68 21.77 27.68 26.77 26.80 25.78 24.58 24.65 24.36 25.18 27.01 29.05 33.37 34.35 31.62 31.99 29.07 28.73 28.90 31.65 35.11 35.88 35.04 34.77 34.05 31.85 29.16 25.96 24.69 23.76 23.74 24.38 24.18 22.08 19.32 18.22 17.41 16.54
22.32 23.09 20.21 20.03 19.22 18.61 24.58 25.11 25.79 25.82 24.82 24.28 24.27 24.08 24.84 25.83 26.54 30.75 31.49 31.23 31.73 29.59 30.32 30.04 30.65 33.04 33.70 32.90 31.25 32.81 31.40 30.74 27.17 25.85 24.98 24.30 21.46 19.78 17.72 16.37 13.17 11.96 6.02
23.41 21.41 18.14 19.03 18.55 19.77 21.84 21.10 21.67 20.76 25.07 25.06 25.01 24.32 23.48 22.92 24.96 29.76 31.08 29.93 29.96 29.74 29.55 29.69 29.51 29.97 29.96 29.90 28.40 28.70 27.96 27.54 27.43 25.46 22.75 18.71 18.58 17.38 15.40 14.15 11.36 4.01 1.44
22.09 24.81 23.53 25.68 25.46 24.00 23.65 25.61 29.69 29.23 30.45 30.11 30.16 26.97 26.15 27.94 30.00 31.85 33.02 32.30 32.41 32.86 29.71 28.52 28.55 28.95 27.96 27.23 25.72 23.90 23.75 23.37 23.56 21.74 20.74 19.26 16.69 15.43 13.20 10.04 4.77 2.75 1.35
20.84 26.60 26.19 25.04 24.74 24.68 24.04 25.27 25.32 29.38 32.49 32.64 32.76 31.54 30.24 30.03 30.80 32.30 33.73 33.54 33.49 33.89 28.85 28.56 27.76 27.93 27.23 24.97 24.44 23.47 21.56 21.57 19.92 19.27 17.61 15.91 13.51 12.78 9.57 5.93 7.16 4.62 -3.95
28.41 27.21 26.54 25.98 25.57 25.19 24.96 25.21 25.13 23.32 22.56 22.78 28.81 30.77 33.10 32.88 31.59 31.69 32.81 33.46 30.69 32.28 28.30 28.24 27.75 25.95 24.78 23.94 22.39 19.25 16.18 15.72 14.21 13.38 12.50 11.70 9.77 8.31 5.56 6.89 5.76 -4.75 -7.26
24.54 24.75 25.40 25.07 24.10 24.39 24.30 24.37 24.11 22.32 20.65 20.11 20.82 24.15 23.67 31.63 32.34 32.72 32.81 28.78 25.94 24.70 21.86 19.34 19.35 17.79 18.09 18.10 16.85 14.95 11.72 11.22 8.05 6.28 1.77 3.72 5.82 7.21 3.64 4.14 3.64 1.05 -4.92
21.66 23.34 23.41 23.69 23.63 23.31 22.97 23.02 22.29 21.55 21.19 19.06 18.36 18.03 19.41 19.69 17.32 16.54 19.82 22.23 20.47 18.77 18.78 18.46 16.90 13.00 7.27 5.96 5.22 7.00 6.96 5.67 2.38 0.93 4.02 7.39 6.70 5.36 1.54 -1.04 -1.17 -5.31 -6.07
18.75 18.38 19.02 18.44 18.35 19.27 19.77 19.60 19.63 19.43 17.05 15.53 15.53 20.64 23.16 13.25 11.41 10.73 11.11 10.43 11.28 9.85 6.95 7.37 6.01 5.62 1.13 -0.33 -1.34 -2.33 -1.81 3.98 4.82 5.67 4.47 3.91 -0.89 -6.49 -4.06 0.94 -1.84 -3.01 -6.40
15.24 14.71 14.38 13.84 14.25 13.92 14.06 14.73 14.58 13.60 12.48 12.43 12.07 14.34 17.67 11.09 8.89 7.24 5.99 2.96 -0.11 -1.92 -5.02 -4.00 -5.78 -6.16 -5.11 -1.01 0.75 2.13 1.77 2.42 1.77 -0.75 -3.64 -4.99 -6.51 -7.23 -6.95 -5.83 -4.77 -5.09 -8.03
13.05 12.37 11.70 10.95 10.86 10.55 9.65 9.41 9.67 9.37 8.57 8.08 7.62 6.95 6.37 5.32 4.47 1.75 -2.82 -5.17 -5.27 -5.48 -8.89 -9.21 -8.43 -7.42 -6.26 -4.33 -3.50 -1.18 -0.93 -2.69 -2.98 -5.81 -6.73 -8.42 -8.86 -7.84 -7.37 -6.15 -7.54 -11.09 -10.17
9.45 8.93 8.26 7.78 7.51 7.00 6.48 5.41 5.17 5.05 4.00 2.69 1.76 1.46 2.07 0.32 -2.75 -5.04 -7.25 -9.40 -9.04 -11.82 -12.60 -13.56 -13.08 -11.89 -13.52 -15.55 -17.94 -19.16 -17.65 -15.54 -16.02 -8.54 -7.02 -6.28 -6.24 -5.06 -6.43 -10.51 -8.01 -7.39 -9.65
6.07 5.32 4.92 4.67 4.51 4.18 3.30 2.57 1.98 0.85 0.21 0.99 -0.61 -1.38 -4.75 -4.09 -7.13 -10.22 -12.81 -14.48 -14.95 -13.88 -13.01 -15.10 -15.84 -16.04 -16.42 -16.11 -16.67 -17.76 -16.87 -1.79 -14.48 -8.68 -6.45 -5.11 -5.98 -7.03 -6.97 -6.99 -7.16 -10.23 -10.18
3.60 3.15 2.48 2.19 1.24 0.76 0.40 -0.11 -1.07 -0.34 -0.84 -1.65 -1.94 -5.60 -8.38 -9.44 -11.10 -13.97 -15.02 -15.41 -13.94 -14.32 -15.62 -16.53 -16.71 -15.28 -14.68 -12.75 -11.80 -8.65 -6.27 1.57 -2.44 -3.49 -9.81 -6.90 -6.24 -6.83 -7.42 -8.56 -8.25 -11.08 -9.85

GFSGL_sfc_wetblb_075.txt.gz
Wetbulb
42.43 42.48 42.61 42.95 43.68 44.47 45.14 45.71 45.36 44.86 43.86 43.68 43.63 44.01 45.01 45.31 46.57 48.20 48.80 48.96 48.49 48.06 47.41 45.25 44.42 44.46 43.82 39.50 37.98 37.07 36.83 38.31 37.60 28.59 29.37 29.88 29.71 29.66 29.65 31.23 31.49 30.77 30.67
41.90 42.16 42.29 42.58 42.67 42.77 43.30 43.90 43.56 43.65 42.40 42.58 41.64 42.33 44.47 46.03 46.35 46.38 46.72 47.05 46.81 45.24 45.28 44.07 43.38 43.40 42.32 40.34 38.16 36.67 36.78 37.40 37.94 27.75 27.32 27.87 28.78 30.01 29.82 30.10 29.67 29.95 28.81
39.89 40.39 40.86 41.22 41.44 41.66 41.81 41.91 41.80 41.72 41.20 40.14 40.00 40.85 42.07 43.63 44.72 45.05 45.88 45.55 45.30 45.93 45.12 43.92 43.27 42.50 41.05 41.17 39.04 37.68 36.44 34.53 35.10 30.55 26.42 28.18 27.64 29.50 28.41 29.38 27.34 27.30 28.32
38.27 38.51 38.86 39.55 40.29 40.77 40.85 40.52 40.21 39.88 39.57 39.11 38.58 40.17 40.16 40.42 41.55 43.51 43.64 43.21 43.24 43.64 43.28 43.44 42.84 42.34 40.90 40.53 36.47 35.70 33.40 31.47 31.77 31.40 28.09 27.00 27.49 27.43 27.39 25.61 24.34 26.46 25.84
36.21 36.31 36.75 37.18 37.71 37.61 36.95 36.43 36.12 35.78 37.56 37.74 36.89 36.37 37.40 37.74 39.15 39.44 40.30 40.61 40.52 40.88 40.42 40.46 40.31 40.04 38.65 39.78 35.52 33.53 32.26 32.26 31.31 31.24 27.01 25.99 25.35 24.60 24.35 25.73 25.28 25.74 26.16
33.77 33.21 34.17 33.20 32.95 33.18 33.23 33.53 33.76 34.01 34.08 33.87 33.78 34.61 34.74 37.06 39.71 40.29 39.18 37.85 37.48 37.57 37.81 36.97 36.57 34.55 35.61 38.06 37.66 36.85 34.26 32.66 31.52 30.53 28.34 26.46 25.47 25.31 26.22 25.26 24.97 24.23 22.75
31.30 31.54 31.47 31.59 31.73 32.23 32.08 31.87 32.09 32.41 32.65 32.45 32.47 32.30 33.11 33.72 38.15 39.02 38.55 35.59 34.89 35.66 36.20 35.56 33.18 32.51 32.50 33.94 36.40 36.79 35.56 36.89 36.33 32.35 28.50 27.35 26.09 26.38 26.64 25.21 26.29 26.60 25.42
31.56 31.02 29.75 30.07 30.14 30.37 30.56 30.71 30.59 30.30 30.23 30.63 30.90 30.56 31.34 31.25 36.43 37.86 37.20 34.98 33.48 33.39 34.00 34.08 33.06 30.88 31.56 31.78 32.46 32.23 32.36 33.45 33.85 32.03 30.60 30.68 30.11 28.84 29.05 29.29 28.08 26.90 25.82
30.51 30.47 29.98 29.20 28.62 28.55 28.63 29.60 29.86 28.70 28.11 27.88 27.85 26.28 26.68 27.88 34.30 35.87 36.06 32.82 32.43 31.88 31.88 32.14 31.56 30.19 31.77 34.02 31.49 30.80 30.11 30.39 33.84 33.82 33.47 33.82 34.45 33.20 31.54 28.55 25.87 24.40 21.94
29.67 29.20 28.85 28.23 26.99 27.16 28.16 28.33 26.41 22.37 27.37 26.42 26.50 25.44 24.85 29.43 32.62 33.95 34.21 32.48 32.04 30.40 29.56 29.61 30.20 30.34 32.21 34.28 31.24 29.97 27.73 27.92 29.36 30.43 30.93 33.04 33.30 32.68 32.85 30.66 26.95 24.03 21.59
27.17 26.77 26.20 26.06 25.10 25.37 25.64 22.36 21.67 22.43 23.39 21.64 23.42 24.45 23.62 24.84 29.88 33.00 34.05 32.04 31.51 29.71 28.13 27.73 28.86 32.79 32.54 34.52 34.55 30.04 29.55 30.23 31.54 29.66 28.94 28.95 29.04 30.04 30.01 28.86 28.13 26.92 23.07
24.37 23.85 24.04 23.16 23.77 25.77 21.36 20.29 19.67 20.31 20.30 26.82 25.62 25.12 24.58 24.73 28.08 31.02 32.50 33.50 32.83 28.11 27.08 27.68 28.68 31.81 34.14 34.92 32.87 32.63 33.65 30.89 29.57 27.99 27.26 26.69 26.97 27.75 27.98 27.41 26.91 25.92 25.74
22.60 21.95 22.75 22.33 22.84 22.44 17.96 20.06 25.28 26.19 26.69 26.87 24.99 24.33 23.82 24.16 26.07 30.17 32.01 33.26 33.69 28.03 28.65 28.85 30.18 31.75 33.84 33.90 33.69 33.84 31.88 29.59 27.57 26.33 25.85 25.92 26.79 27.05 25.33 22.96 21.81 20.13 19.69
23.84 23.22 22.25 22.31 22.69 20.61 21.48 21.47 23.19 25.87 25.77 25.84 25.67 24.81 21.65 22.79 26.72 28.37 30.59 32.10 31.00 29.44 29.38 27.85 30.11 31.09 32.58 32.75 31.56 32.59 29.40 28.82 27.63 26.68 25.93 25.55 25.09 23.69 21.87 20.55 17.64 16.63 15.08
22.24 24.03 23.83 25.89 23.57 20.90 20.04 19.87 19.69 19.55 21.82 17.32 20.73 24.23 23.55 24.40 26.17 29.90 31.06 28.97 27.50 26.75 25.02 25.43 26.33 28.88 29.46 29.64 29.94 30.05 28.82 27.57 26.72 26.45 25.28 23.03 22.69 21.80 19.87 19.21 16.81 14.80 14.38
14.99 21.10 24.85 26.25 25.98 21.04 19.44 20.61 28.45 30.93 31.76 31.64 32.18 28.40 21.75 27.35 30.31 31.06 33.03 32.50 31.37 30.86 22.69 21.37 20.62 25.74 28.15 27.80 27.48 27.66 28.26 27.84 27.39 26.57 24.74 22.98 21.30 20.78 18.47 17.17 14.78 14.01 13.50
12.25 16.42 21.47 24.96 24.37 22.73 17.91 18.98 21.16 23.76 32.02 31.96 32.39 32.53 31.18 29.89 30.37 31.31 33.18 33.31 32.42 31.57 23.18 22.96 23.13 23.92 25.26 25.48 25.28 25.03 24.46 24.61 24.09 23.85 22.08 21.42 20.35 19.58 17.29 14.96 13.49 11.57 10.07
10.49 14.18 17.50 22.54 24.09 21.39 20.68 22.00 22.60 20.40 21.41 22.73 26.29 28.72 32.83 31.58 32.07 32.73 32.89 32.70 29.83 29.48 24.88 24.93 24.68 25.50 24.83 24.37 23.83 23.13 21.78 19.87 19.86 20.59 19.85 18.73 17.93 15.90 13.71 13.09 12.20 9.24 9.02
10.35 15.41 19.98 23.33 21.22 22.44 22.26 23.30 22.67 21.57 20.34 20.02 21.29 24.02 22.95 28.62 28.76 28.43 29.19 25.83 24.06 22.69 23.93 22.85 23.00 23.02 22.58 22.70 21.67 20.47 19.27 17.18 15.89 15.95 14.10 12.37 12.26 10.48 8.75 10.52 10.06 9.04 7.60
12.71 17.44 21.59 19.94 18.27 20.54 22.09 21.84 20.68 19.18 18.48 18.96 19.40 17.88 18.34 18.65 16.38 13.89 14.02 16.34 16.29 15.91 16.12 15.20 14.05 13.27 13.25 13.48 13.09 12.53 11.74 10.29 9.58 9.62 7.81 6.56 7.88 10.02 8.42 6.50 7.32 6.00 4.16
14.42 16.18 18.80 17.72 18.52 19.48 20.21 19.36 18.20 17.24 15.57 14.26 14.96 20.62 20.17 13.18 10.60 9.23 8.21 6.89 7.77 8.04 8.89 8.55 7.78 7.21 6.02 5.54 5.31 3.89 2.36 2.67 1.36 2.04 3.76 4.08 3.75 3.13 3.80 8.10 6.09 4.38 1.03
14.89 15.04 15.24 15.27 15.90 15.87 15.55 15.80 15.25 14.12 12.88 11.68 10.51 13.20 15.57 9.90 8.42 6.73 4.63 3.06 2.28 1.90 1.42 2.96 1.28 -0.40 -0.62 -0.38 0.06 1.25 0.88 -0.86 -1.69 -1.39 -1.16 -2.22 -2.48 -0.44 0.46 -0.14 -0.45 -3.92 -7.70
12.59 12.39 11.97 11.69 12.23 12.48 11.53 11.49 11.18 10.60 9.38 8.78 8.70 7.96 7.12 6.06 5.00 3.04 1.30 0.08 -1.13 -1.62 -2.29 -2.40 -1.65 -2.64 -5.18 -5.62 -5.81 -4.42 -2.91 -4.44 -5.39 -7.43 -6.63 -9.68 -9.84 -9.26 -9.69 -9.68 -10.11 -11.60 -11.44
8.99 9.05 8.75 8.45 8.66 8.42 8.06 7.24 6.92 6.69 5.79 4.62 3.90 2.94 2.00 0.50 -1.05 -1.48 -2.67 -3.81 -3.88 -6.13 -6.70 -7.04 -8.86 -9.59 -10.93 -14.92 -18.29 -18.83 -18.18 -17.29 -19.36 -16.00 -13.45 -12.19 -16.06 -17.51 -18.36 -18.27 -14.92 -12.08 -7.69
5.88 5.80 5.30 5.01 4.98 4.88 4.48 3.66 3.07 2.47 1.71 1.24 -0.33 -0.10 -1.70 -1.71 -1.51 -3.05 -3.84 -3.52 -3.79 -3.10 -4.30 -6.59 -8.27 -10.12 -13.07 -13.07 -14.04 -16.07 -15.57 -8.78 -17.00 -17.11 -21.73 -19.14 -19.52 -20.48 -19.45 -16.66 -11.80 -8.19 -5.05
3.11 2.99 2.56 2.66 2.19 2.09 1.54 0.78 -0.30 -1.21 -2.36 -2.38 -3.02 -3.85 -4.73 -4.64 -4.79 -5.36 -8.26 -8.17 -7.60 -7.52 -8.43 -9.50 -13.36 -14.36 -14.44 -14.09 -14.56 -10.33 -9.31 -1.86 -9.24 -12.08 -19.83 -18.23 -18.29 -19.18 -17.82 -14.50 -11.13 -12.09 -10.66

GFSGL_sfc_wetblb_078.txt.gz
Wetbulb
40.61 40.59 40.81 41.26 41.88 42.06 42.59 43.34 43.78 43.76 43.56 43.30 43.12 43.13 44.08 44.51 45.19 48.39 49.72 49.98 49.39 49.44 49.33 47.37 46.75 47.15 46.45 45.29 42.60 41.98 40.43 39.87 38.78 41.60 31.83 31.72 31.70 31.65 31.68 32.77 33.05 33.08 33.35
39.11 39.60 39.78 40.34 40.49 40.64 41.19 41.73 41.59 42.04 41.91 41.93 41.57 41.38 42.34 43.24 43.69 44.33 46.13 47.10 47.06 46.86 47.42 47.51 47.06 46.13 44.79 45.49 42.46 40.21 40.22 39.85 39.17 38.46 29.87 28.68 29.73 30.96 31.01 30.78 31.29 32.30 31.50
36.87 37.24 37.90 37.97 38.22 38.64 39.17 39.64 39.64 39.77 39.67 39.49 39.35 39.37 40.41 41.66 44.20 45.65 46.06 45.92 46.00 46.33 46.50 45.29 45.73 43.50 42.60 43.13 42.83 39.81 39.15 38.66 38.36 37.93 29.74 29.19 28.97 30.07 29.19 30.08 30.35 30.69 31.20
35.13 34.95 34.77 34.99 35.57 36.00 36.27 36.45 36.47 36.71 36.77 37.00 37.18 37.71 38.15 38.95 40.94 43.17 44.02 43.98 44.27 44.87 44.97 45.11 44.10 43.22 42.68 42.08 41.26 40.54 38.55 37.11 36.05 35.64 29.87 27.95 28.40 28.84 28.76 27.29 27.06 28.97 28.41
34.07 33.68 33.48 33.57 33.57 33.01 32.54 32.29 32.48 32.71 34.43 34.41 34.26 34.52 34.86 36.22 38.35 39.46 40.27 41.10 41.39 41.72 41.88 41.68 42.35 41.55 39.80 42.13 40.58 40.17 37.35 35.10 33.01 33.08 32.05 28.44 27.03 25.93 26.15 27.67 26.45 26.16 27.08
32.87 32.43 32.43 31.16 30.81 30.77 30.70 30.90 30.96 31.33 31.55 32.12 32.38 32.45 33.10 35.69 38.64 40.15 39.97 38.64 37.85 38.00 38.69 38.95 37.87 35.83 37.42 39.54 40.86 40.97 37.86 34.80 33.61 32.92 32.50 29.05 28.56 27.98 27.79 26.32 25.88 23.84 22.14
30.59 31.04 30.51 30.13 29.90 30.13 30.01 30.09 30.45 30.71 30.40 30.48 30.47 30.71 31.81 32.20 36.74 38.41 38.55 37.30 37.08 36.77 36.55 35.97 34.52 34.27 34.12 35.93 37.60 39.40 39.20 38.69 39.05 34.65 33.20 31.38 29.35 27.76 27.47 25.99 26.10 25.78 25.89
30.01 29.66 29.10 29.22 28.72 28.48 28.20 28.30 29.00 29.51 29.19 29.52 29.92 29.40 29.48 30.51 35.55 36.74 36.96 35.35 35.22 35.04 34.68 34.61 34.61 34.37 33.01 32.95 33.29 33.40 34.54 34.79 35.74 36.17 33.89 32.48 31.22 29.72 29.07 28.50 27.48 27.81 25.99
29.70 29.38 28.80 28.03 27.12 26.85 26.24 26.93 27.54 28.07 28.22 28.11 27.70 26.93 25.93 27.39 32.62 34.36 34.49 32.12 33.52 33.32 33.10 33.09 33.37 33.16 33.31 35.27 32.44 31.79 32.35 32.24 34.87 36.57 34.50 34.34 34.22 33.22 31.15 29.60 26.16 25.31 21.92
28.66 28.79 27.90 26.93 25.16 24.89 25.90 26.01 25.10 24.96 26.65 26.01 25.99 24.66 23.77 24.01 30.14 33.22 33.72 32.41 31.96 31.94 30.94 30.76 31.09 32.47 33.27 34.02 32.73 31.34 30.12 29.52 30.19 30.57 31.16 32.56 33.15 32.36 33.49 30.47 28.31 25.91 22.20
26.25 26.23 25.37 25.00 23.27 23.71 23.66 21.45 24.01 23.38 23.14 21.94 24.46 23.32 22.63 22.20 23.80 31.91 33.37 31.90 31.43 31.29 30.56 29.29 29.16 31.88 33.61 33.71 34.47 31.55 30.48 30.13 31.97 30.31 30.23 30.15 30.28 30.64 30.19 29.68 29.96 28.37 23.69
23.63 24.26 22.89 22.48 22.23 24.34 20.37 21.26 19.41 20.09 26.92 27.45 26.88 24.42 22.91 22.24 26.50 29.93 32.04 32.91 33.31 31.27 29.25 28.10 28.62 31.03 32.30 34.05 33.56 33.76 33.81 31.58 29.76 28.38 27.56 27.08 27.75 28.12 27.64 27.49 27.90 27.58 27.40
23.83 25.02 25.29 24.31 22.48 22.25 19.55 20.76 21.02 19.33 25.94 26.92 26.08 24.23 23.02 22.64 21.75 29.56 30.76 31.88 33.05 29.35 29.05 28.99 30.71 31.39 32.03 32.97 33.98 33.81 31.60 29.13 28.13 27.10 26.33 26.25 27.21 26.94 25.50 22.89 21.38 21.16 20.78
15.07 18.93 23.01 24.07 24.50 25.83 20.87 21.34 19.60 18.36 19.60 21.80 21.16 20.39 20.76 20.38 21.11 24.48 29.22 30.93 31.33 29.64 29.63 28.30 29.57 31.01 31.86 31.85 31.42 32.12 29.61 28.63 28.07 27.21 26.43 25.35 25.35 24.62 22.80 21.31 18.01 18.02 16.02
13.51 15.60 17.22 21.90 25.02 26.30 26.52 21.60 21.94 20.95 20.42 19.69 17.19 21.54 23.77 18.65 19.28 29.51 30.90 26.20 25.53 27.31 23.29 22.04 22.39 27.13 28.71 29.14 29.26 27.96 28.15 28.10 27.05 26.34 25.18 23.83 23.45 22.86 20.89 20.49 18.59 17.20 16.03
10.57 14.30 16.46 17.45 20.08 24.26 25.18 24.87 26.83 30.00 31.48 32.22 32.84 31.84 27.81 27.78 29.70 30.63 32.02 31.95 31.28 30.14 23.99 23.33 24.04 25.23 26.94 27.37 27.59 26.97 27.07 26.83 26.61 26.34 24.93 23.81 22.44 21.82 19.64 18.81 17.05 16.65 15.87
6.87 10.20 12.72 15.17 17.21 20.47 23.44 23.63 22.16 23.28 30.94 30.51 30.24 30.69 32.46 30.97 30.41 31.74 32.60 32.59 32.33 28.26 22.44 24.80 24.38 25.00 24.70 25.47 25.98 25.93 24.86 24.99 25.37 25.68 24.47 23.38 22.51 21.71 19.19 17.09 16.07 15.18 13.47
4.26 7.54 9.44 12.36 16.31 20.19 23.77 24.34 23.20 19.43 18.20 19.25 25.09 27.79 32.45 32.68 32.78 31.45 32.84 30.72 28.60 25.73 21.87 23.25 23.37 23.94 24.77 25.33 24.65 23.67 22.00 21.76 21.46 21.57 21.70 21.72 20.60 18.07 15.70 15.03 14.52 12.23 11.60
5.22 8.00 10.55 13.64 17.13 20.81 23.71 22.48 22.05 20.74 20.06 20.11 20.98 23.23 22.40 27.62 26.56 26.13 25.80 20.55 19.85 18.48 18.19 17.28 17.75 18.26 18.86 18.87 19.03 18.06 17.77 16.58 16.49 15.25 13.94 12.90 13.01 11.89 9.52 11.58 11.96 11.17 9.74
6.51 9.15 13.55 15.95 18.32 20.62 20.58 20.79 20.00 18.93 18.20 18.43 18.75 17.78 18.58 18.26 14.64 12.45 11.55 12.43 12.66 11.34 11.66 11.02 11.18 10.92 11.05 11.57 11.66 11.83 11.34 10.48 9.65 9.49 8.02 8.73 8.54 9.74 7.44 7.41 8.46 7.22 5.93
8.94 12.44 15.14 16.09 17.21 19.21 19.40 19.46 18.35 17.09 15.18 13.91 14.78 19.88 19.47 12.02 9.19 7.76 6.56 5.14 4.83 5.17 6.52 6.36 5.10 5.08 5.57 6.29 7.06 6.84 5.87 4.57 3.43 4.27 3.98 4.16 3.89 2.67 5.75 8.84 6.76 4.98 1.90
10.18 12.86 13.35 13.15 14.30 14.78 15.30 15.65 14.80 13.49 12.23 10.96 9.90 11.37 14.63 8.32 6.66 4.96 3.65 2.70 2.24 1.86 2.29 2.67 0.74 -0.77 -0.64 -0.40 1.23 2.82 2.12 1.08 0.13 -0.47 -0.07 0.74 1.67 2.38 3.12 2.37 1.59 -1.19 -3.08
9.36 10.60 11.09 10.99 11.39 11.77 10.78 10.52 9.97 9.10 7.90 7.07 6.58 5.93 5.11 3.98 3.04 1.60 0.16 -1.11 -1.90 -2.09 -1.93 -2.43 -2.19 -3.14 -4.08 -4.44 -4.43 -3.96 -1.91 -5.21 -7.48 -8.85 -6.26 -7.93 -8.00 -7.24 -9.01 -9.14 -10.70 -13.27 -12.49
7.50 7.93 8.26 8.06 8.01 7.41 7.05 6.32 6.10 5.75 4.90 3.91 3.15 2.74 2.16 0.66 -1.09 -2.23 -3.54 -5.11 -4.49 -8.03 -6.77 -5.46 -3.84 -5.81 -7.35 -7.50 -10.27 -14.21 -13.69 -17.68 -20.33 -17.91 -16.28 -15.88 -18.11 -19.45 -19.09 -20.49 -18.15 -17.66 -15.30
4.81 4.95 4.88 4.77 4.49 4.42 4.31 3.82 3.37 2.76 2.22 2.12 1.08 0.77 -0.66 -1.59 -3.28 -6.23 -6.13 -5.60 -5.05 -4.88 -4.53 -5.19 -7.87 -10.33 -13.03 -16.23 -17.52 -19.10 -17.60 -12.20 -21.03 -20.37 -24.01 -21.07 -21.41 -23.53 -23.24 -21.23 -19.55 -15.99 -12.53
2.07 2.14 1.99 2.17 1.82 1.89 1.78 1.54 0.55 -0.12 -1.03 -2.20 -3.44 -5.00 -7.03 -7.15 -6.04 -9.02 -11.42 -11.56 -12.50 -12.37 -12.84 -14.70 -16.46 -16.58 -18.17 -17.12 -18.40 -12.93 -9.25 -1.53 -11.01 -13.82 -21.47 -19.82 -20.56 -23.06 -22.39 -20.09 -18.01 -14.65 -11.59

GFSGL_sfc_wetblb_084.txt.gz
Wetbulb
44.28 44.77 44.59 44.24 44.32 44.74 44.39 44.17 43.90 44.73 44.63 44.98 45.58 46.35 47.17 47.95 48.89 49.38 50.04 50.80 50.59 50.67 51.11 50.77 50.48 50.71 50.42 50.16 49.31 48.02 47.51 46.47 43.24 46.28 48.25 45.35 38.78 36.82 35.80 36.38 37.41 37.60 39.22
42.27 42.96 42.49 42.68 42.65 42.56 42.13 41.90 41.85 41.59 42.19 41.99 42.53 43.14 43.97 44.84 45.71 46.01 46.32 47.25 47.50 47.39 47.65 47.74 47.60 48.39 48.49 49.02 48.89 47.53 46.49 46.42 44.54 42.51 45.26 45.42 36.13 35.49 36.25 34.28 34.50 36.11 36.58
40.51 40.56 40.60 40.12 39.96 39.82 39.51 39.57 39.63 39.57 39.91 40.65 40.36 40.13 40.50 41.52 42.28 43.45 44.34 44.98 45.84 46.50 46.16 45.09 45.05 45.28 44.62 45.44 45.99 45.90 46.31 45.10 44.80 42.79 42.86 45.11 36.18 33.39 33.08 33.40 33.49 33.46 34.18
39.48 39.40 39.21 38.96 38.65 38.73 38.69 38.47 38.28 38.42 38.64 38.99 39.19 39.23 39.68 39.75 40.00 40.76 41.38 42.05 42.97 43.43 44.05 44.07 43.61 42.98 42.56 43.27 43.18 43.16 42.88 43.19 43.12 41.33 41.23 41.28 36.00 31.07 32.71 31.37 29.54 31.79 31.60
38.26 38.17 37.64 37.59 37.48 36.95 36.58 36.18 36.13 36.05 36.51 36.71 36.62 37.15 37.94 38.19 38.37 38.23 38.63 39.40 39.23 39.19 40.02 40.01 40.48 40.49 38.50 40.74 41.73 41.99 41.97 40.65 40.67 39.55 38.52 39.15 36.14 28.20 28.55 30.79 30.88 30.57 30.28
36.83 35.97 36.03 35.51 34.98 35.26 34.70 34.00 34.14 34.48 34.91 35.02 35.02 35.37 35.27 36.34 36.84 36.13 36.49 37.12 36.50 36.16 36.25 37.63 38.64 36.57 38.06 39.12 40.10 40.62 40.81 39.27 36.69 38.07 38.51 37.24 36.89 35.75 33.22 30.67 29.19 27.03 25.52
35.64 35.01 33.89 33.63 33.30 33.40 33.02 32.80 33.01 33.25 33.45 32.95 33.58 33.98 34.00 35.01 35.00 35.30 35.51 35.49 35.79 35.72 35.60 35.69 35.87 36.42 35.38 36.81 38.08 38.89 38.92 39.40 40.47 38.68 36.38 36.74 36.76 37.17 33.11 29.91 28.72 28.27 28.85
34.57 33.98 33.25 32.32 31.69 31.62 31.30 31.27 31.99 32.38 32.01 32.34 32.64 32.62 32.89 33.05 33.93 34.34 34.46 35.00 35.61 35.91 36.06 35.06 34.79 34.85 35.77 35.55 35.63 35.13 35.34 35.83 35.95 35.67 35.81 36.06 36.62 36.68 33.81 32.92 30.50 31.11 31.25
32.31 31.76 31.02 30.51 29.41 29.27 28.58 29.87 30.63 31.00 31.22 31.45 31.81 31.46 31.35 31.89 32.96 33.20 33.46 33.82 33.66 33.96 34.60 35.45 35.70 35.54 35.85 35.80 34.09 33.19 33.49 34.02 36.03 36.60 36.80 37.42 38.12 38.73 34.84 31.76 30.19 28.27 26.37
29.90 28.92 28.53 28.49 27.77 27.36 27.98 28.10 29.46 29.80 29.08 30.07 30.33 31.17 30.74 30.80 32.36 32.86 32.79 32.83 31.47 31.72 33.47 33.67 32.78 34.34 34.90 35.03 32.98 32.43 31.39 32.32 33.00 32.92 32.90 33.72 34.96 34.79 35.75 32.63 31.60 28.01 26.44
26.99 26.13 25.75 26.02 26.22 27.60 28.44 28.34 27.42 27.04 27.11 27.56 28.29 30.18 31.33 31.71 31.22 32.02 32.10 31.85 30.76 30.51 30.71 31.01 32.69 34.20 33.98 33.89 34.15 32.52 32.06 33.53 33.43 32.54 31.99 32.12 32.29 32.14 31.98 32.54 32.11 31.32 27.24
23.53 22.03 21.60 21.80 23.27 25.17 25.36 26.95 27.82 27.28 26.19 25.60 26.73 28.40 30.88 31.70 30.57 31.04 31.48 31.76 32.04 30.23 30.22 32.24 32.63 32.44 33.17 33.54 33.21 33.64 34.35 34.13 32.27 31.94 31.45 31.07 30.67 30.72 30.56 31.43 31.19 29.99 30.31
18.01 16.23 17.42 19.33 20.60 22.34 23.11 23.78 26.05 28.08 26.97 25.79 25.38 25.59 27.05 29.99 30.98 31.08 30.37 30.90 31.71 31.36 32.29 31.20 31.79 31.50 31.85 31.94 32.12 32.86 32.13 32.54 31.91 30.85 30.28 29.46 29.39 27.85 27.39 25.22 24.14 23.41 22.53
13.49 14.50 16.30 17.44 18.78 20.44 22.22 23.64 24.56 25.46 26.27 25.79 25.06 26.12 28.17 30.25 31.05 31.29 31.26 31.94 31.77 31.33 31.00 31.20 30.45 31.10 31.62 31.31 31.50 32.21 31.64 31.86 30.84 30.01 28.26 28.01 28.70 27.16 25.63 25.58 23.76 23.43 20.39
11.11 12.77 14.81 16.89 17.67 17.94 19.24 21.03 21.96 24.13 25.62 25.35 26.66 27.72 27.63 29.07 31.39 32.13 31.90 31.80 31.98 31.35 30.02 30.64 30.51 30.68 29.98 30.51 30.70 30.50 31.05 31.13 29.76 29.26 28.38 27.54 26.55 25.35 24.21 24.61 23.32 23.56 21.72
9.20 12.57 13.87 13.18 14.91 15.94 17.42 18.72 22.33 24.10 26.03 28.14 30.32 30.90 32.01 31.18 31.86 33.42 32.02 32.86 32.22 30.97 29.48 28.55 28.70 29.01 28.68 29.01 28.93 28.96 29.38 29.22 29.43 29.30 28.66 27.93 26.73 25.77 24.01 23.21 23.36 23.77 20.99
6.32 8.50 10.88 11.63 13.24 14.05 15.27 16.17 16.08 21.13 25.30 27.89 29.16 31.80 30.86 31.75 32.50 32.40 33.50 32.89 30.73 29.73 28.02 27.56 26.91 26.95 27.53 27.45 27.66 27.55 27.03 27.82 29.71 29.28 28.59 27.84 27.38 25.46 25.48 23.54 22.98 22.58 20.84
4.85 6.65 8.74 11.25 12.36 13.29 14.29 15.64 17.00 18.07 20.05 24.37 27.26 27.83 28.08 27.11 27.61 30.11 33.08 30.11 25.60 23.54 22.18 21.89 21.66 22.39 22.90 23.41 23.80 24.26 24.54 25.23 25.46 25.76 25.68 25.87 25.64 25.17 23.97 23.12 22.27 20.98 20.09
6.40 8.92 9.84 10.90 11.86 12.74 13.92 16.11 18.34 20.50 23.06 23.39 23.62 24.45 23.55 24.26 22.11 22.42 22.93 20.83 18.81 17.14 17.50 17.05 17.16 17.65 18.68 19.77 20.49 20.34 20.12 19.38 20.08 21.26 21.11 20.95 21.23 22.11 20.69 20.46 19.57 17.41 17.76
7.65 7.52 8.24 10.06 12.12 14.06 16.25 17.97 20.21 22.66 20.65 18.81 18.69 18.18 19.06 19.04 15.21 13.01 12.91 13.70 13.76 13.42 13.78 13.38 13.62 14.16 14.74 15.88 16.69 16.88 17.01 16.37 16.47 16.75 16.62 17.11 17.55 18.41 17.71 17.39 17.31 16.72 16.27
7.53 8.79 9.19 11.33 13.75 14.70 15.91 17.86 19.56 18.91 16.62 14.88 14.54 17.84 16.99 12.97 11.28 10.54 9.57 9.01 8.94 9.37 10.01 10.00 9.83 9.74 10.21 11.59 13.41 13.91 13.03 12.84 12.36 12.84 13.30 13.61 13.75 14.26 14.52 14.94 14.18 13.19 13.30
8.93 9.25 10.65 11.59 13.24 14.28 14.12 15.74 15.84 15.07 13.97 12.83 11.86 11.78 13.79 10.31 9.49 8.57 7.51 6.52 6.36 6.18 6.32 6.68 5.77 4.67 4.03 4.93 6.40 9.65 9.22 8.72 9.08 9.96 10.40 9.65 11.30 11.43 11.51 11.13 11.14 10.19 9.79
8.27 9.00 10.34 11.19 11.78 11.48 12.39 11.82 11.94 11.68 10.65 9.93 9.59 8.79 8.18 7.20 6.44 5.69 4.59 4.07 3.82 3.79 3.81 4.28 4.37 3.39 3.06 2.76 3.01 3.56 5.19 4.13 3.05 3.29 6.20 6.90 7.12 8.15 7.78 8.90 7.50 6.99 7.45
6.97 7.69 8.21 8.82 9.33 9.74 9.82 9.20 9.12 8.13 8.19 7.47 6.93 6.25 5.57 4.94 4.37 3.43 3.19 3.17 3.33 2.92 2.52 1.82 1.07 -0.13 -0.11 0.11 1.94 1.65 0.68 0.27 0.13 0.64 0.29 3.45 4.31 3.22 4.47 3.40 4.38 2.52 4.17
5.34 5.79 5.98 6.12 6.35 6.79 7.54 7.04 6.60 6.21 5.83 5.25 4.72 4.36 3.78 3.58 3.32 2.67 1.74 1.19 0.33 0.82 0.83 -0.71 -0.69 -1.40 -1.94 -3.80 -3.28 -2.96 -3.30 -5.69 -3.15 -6.47 -0.79 0.35 0.45 -1.20 -0.81 1.09 1.23 2.08 1.20
3.53 3.94 4.34 4.71 4.55 4.61 4.67 4.71 4.89 4.48 3.75 3.30 2.58 2.06 1.51 1.39 1.32 0.81 -0.00 -1.71 -1.68 -2.01 -2.68 -2.14 -2.90 -4.84 -5.30 -3.24 -2.62 -2.50 -4.82 1.73 0.63 -6.39 -0.88 1.16 0.56 0.42 -0.87 -0.49 -2.15 0.51 0.98

GFSGL_sfc_wetblb_087.txt.gz
Wetbulb
45.69 45.59 45.28 45.06 45.26 45.29 44.65 44.21 43.73 44.71 43.99 43.92 43.84 44.27 44.87 45.30 46.24 46.63 47.32 47.92 47.83 48.46 49.55 49.40 48.90 49.49 49.10 49.67 49.90 49.84 48.46 47.92 44.94 46.48 48.29 48.98 42.02 40.15 39.02 39.24 39.90 39.47 40.14
43.59 43.64 43.09 43.01 43.14 42.58 42.04 41.96 42.35 41.82 42.61 42.49 42.42 42.45 42.71 42.94 43.60 43.51 43.65 44.68 44.77 45.10 46.23 46.83 46.54 46.55 46.19 46.60 46.69 46.90 47.06 47.32 45.62 43.48 46.02 46.25 45.65 41.51 41.19 38.41 37.05 37.00 37.53
41.73 41.79 41.53 40.90 40.68 40.23 40.22 40.52 40.51 40.36 40.56 41.14 40.91 40.53 40.68 41.32 41.20 41.63 41.84 41.90 42.29 42.87 43.54 43.84 44.27 44.28 42.58 42.77 43.00 43.19 44.53 44.77 44.83 43.31 42.83 45.29 45.20 35.66 34.88 34.56 34.25 34.51 35.05
40.71 40.58 39.95 39.35 39.06 38.70 38.77 38.63 38.58 38.38 38.55 38.98 38.96 38.96 39.38 39.55 39.64 40.14 39.80 39.03 39.71 40.55 41.32 41.25 41.06 40.64 39.80 39.88 40.20 40.40 40.91 40.75 41.29 41.38 41.61 42.00 42.65 36.50 32.92 33.87 32.61 32.83 33.79
39.46 38.89 38.19 38.55 38.17 37.49 37.13 36.91 36.69 36.42 36.73 37.07 36.72 36.70 37.40 37.65 38.18 37.65 36.61 36.47 36.84 37.39 37.70 37.84 38.37 37.77 36.00 37.74 38.05 38.08 38.58 38.33 38.44 38.32 38.74 39.76 40.01 36.68 31.33 34.27 32.30 34.71 32.82
37.75 36.80 36.49 36.22 35.52 35.72 35.25 34.56 34.41 34.66 35.11 34.95 34.40 34.76 34.84 36.21 37.51 37.24 36.11 34.94 34.98 34.55 34.86 35.90 36.53 35.10 36.52 37.39 37.46 38.23 38.60 37.02 35.33 35.80 35.92 35.77 36.70 38.10 37.66 33.88 32.76 31.32 28.72
36.51 35.56 34.72 34.15 33.40 33.32 32.95 32.68 32.47 33.05 33.59 33.04 33.40 33.86 33.60 34.39 36.25 36.20 35.43 33.56 33.35 34.01 34.40 34.66 34.53 34.59 34.34 34.90 35.95 36.91 36.44 37.13 38.23 36.45 34.22 34.58 34.71 36.05 35.82 34.80 32.52 31.81 31.62
34.79 34.24 33.07 32.02 31.07 30.92 30.72 30.50 31.29 31.76 31.43 31.52 31.81 32.40 32.41 32.49 34.81 34.97 34.64 33.18 33.07 33.39 33.81 34.06 34.04 33.99 34.47 33.86 33.66 33.10 33.30 34.15 35.00 35.05 34.68 34.54 34.67 34.76 34.13 34.32 34.44 32.01 30.72
31.99 31.25 30.34 29.87 28.41 28.40 27.54 28.98 29.52 29.58 29.49 29.71 30.04 30.17 30.44 31.13 33.50 33.96 33.58 32.21 31.65 31.55 32.26 32.84 32.81 32.55 34.00 34.65 32.88 32.70 32.82 33.05 35.38 36.70 37.14 37.23 36.98 37.02 36.52 34.05 30.86 28.92 27.65
28.71 27.75 27.67 27.36 25.84 25.35 26.55 27.13 28.67 29.09 28.23 28.55 28.08 28.73 28.78 29.40 32.51 33.70 33.22 31.43 29.85 29.99 31.11 31.55 32.19 33.05 34.24 34.73 32.46 32.16 30.31 30.61 32.27 32.64 33.25 33.67 34.33 33.25 35.03 33.52 32.01 29.12 26.93
26.56 25.64 24.78 24.49 22.97 23.87 24.98 25.83 25.98 26.61 27.46 27.43 28.27 28.90 28.78 30.05 31.07 33.04 33.20 30.86 29.59 28.98 29.22 29.82 31.34 33.51 33.80 33.31 33.79 32.02 31.89 33.14 33.02 32.24 31.45 32.07 32.05 31.88 31.54 31.66 31.78 31.28 27.15
23.09 21.59 20.28 19.53 20.83 22.66 21.71 22.64 23.71 24.55 25.04 26.62 27.95 28.56 29.36 29.54 30.45 31.89 33.10 33.05 32.26 29.82 29.72 30.58 31.91 32.31 32.52 32.67 31.91 32.61 33.54 33.34 31.66 31.59 30.89 30.90 30.19 29.25 27.02 26.94 26.04 25.43 26.45
16.73 14.95 16.16 17.95 19.01 20.53 20.79 21.05 22.58 24.15 24.61 24.87 26.14 26.32 26.96 28.30 29.72 32.52 33.40 32.57 32.12 31.36 31.89 31.64 31.84 32.16 32.51 31.75 32.23 33.12 31.06 31.54 30.97 29.43 28.81 27.17 27.41 27.74 27.00 25.81 25.10 23.87 21.93
12.54 14.22 15.98 17.01 18.55 19.79 21.76 21.52 21.73 22.07 22.37 22.98 23.56 24.20 25.46 26.71 28.69 30.86 32.27 32.16 31.33 32.07 31.47 30.45 30.84 32.08 32.61 31.80 30.96 30.61 30.55 30.64 29.00 28.45 27.82 28.10 28.39 27.03 24.99 26.03 23.91 22.80 20.80
12.16 13.88 16.13 18.22 18.26 17.86 19.29 19.95 20.22 21.56 22.31 21.83 22.93 24.08 24.45 25.70 29.05 32.07 31.49 32.10 31.76 32.04 30.89 30.44 30.21 29.95 29.79 29.34 29.29 28.94 28.84 29.28 28.20 29.23 28.46 27.12 26.34 25.35 24.15 24.96 24.39 23.86 20.33
10.38 13.90 15.11 14.09 16.08 16.48 17.34 17.93 22.22 23.60 25.00 26.13 27.33 27.27 28.30 30.91 32.40 31.66 33.15 33.17 33.40 31.67 30.16 29.06 28.07 28.05 27.35 26.81 26.88 26.81 27.53 27.94 29.06 29.07 28.33 27.98 26.66 25.18 23.82 23.84 24.32 23.29 19.87
7.26 9.62 11.58 12.35 13.88 14.76 15.78 15.90 15.29 19.31 23.36 25.40 27.16 28.88 29.93 28.89 28.38 29.62 32.44 32.42 29.87 29.88 27.11 25.64 24.63 24.49 24.40 24.73 24.93 24.89 24.11 25.56 26.94 27.49 27.50 26.93 26.42 25.82 25.16 23.69 23.06 22.56 19.95
5.21 7.18 9.50 12.56 13.94 14.44 14.86 15.32 15.57 15.21 16.45 19.73 26.57 26.65 27.09 26.88 25.59 26.13 28.93 30.18 24.14 22.63 21.23 20.12 19.92 20.30 20.79 20.92 20.80 20.26 21.05 20.55 21.71 22.80 22.86 23.04 23.23 23.73 22.84 22.23 21.59 20.50 18.73
7.14 9.63 11.33 11.91 12.83 13.60 13.96 16.00 17.72 18.45 19.56 22.69 22.34 22.47 21.26 23.13 22.87 21.55 22.44 20.39 18.68 17.20 17.37 16.62 16.49 16.44 16.77 17.78 17.98 18.69 18.29 17.63 17.74 17.90 18.11 18.10 18.38 19.75 18.54 19.31 17.57 15.51 17.62
8.26 8.77 9.26 10.52 12.32 14.10 16.23 16.91 17.90 20.36 20.78 18.65 17.27 16.95 16.38 18.40 15.09 13.60 13.60 14.32 14.09 13.71 13.62 13.43 12.88 12.93 13.17 13.93 15.31 14.82 15.15 13.99 13.74 13.83 13.70 13.97 15.11 15.18 15.22 13.15 12.21 14.51 13.16
9.23 10.52 10.07 10.92 14.17 15.35 15.82 16.30 17.77 18.42 17.69 15.73 14.27 15.51 18.70 13.36 11.58 10.80 9.88 9.24 8.81 8.92 9.56 9.86 8.93 8.04 7.58 7.83 9.94 11.43 11.28 11.61 10.61 11.10 10.63 10.38 10.64 9.50 9.32 9.81 7.59 6.49 7.13
9.43 10.78 11.27 11.93 13.45 14.20 14.71 14.55 15.61 15.44 14.08 13.15 12.94 12.70 15.03 11.08 9.94 8.98 7.92 7.05 7.04 7.00 6.95 7.38 6.99 5.25 3.90 4.00 3.88 5.70 6.00 4.41 3.27 3.33 4.12 2.27 4.01 2.88 3.96 3.31 3.14 3.28 2.03
9.71 9.91 10.92 11.97 12.58 11.73 13.04 13.22 12.10 12.17 11.52 11.05 10.50 9.98 9.36 8.50 8.02 7.43 6.57 6.00 5.86 5.43 5.26 4.79 4.76 3.52 3.44 1.69 0.64 -0.65 -2.10 -3.79 -4.86 -5.50 -3.69 -2.25 -2.45 -2.75 -1.97 -1.71 -2.82 -3.05 -2.87
8.49 8.76 9.29 9.84 10.45 9.31 10.38 10.17 9.90 8.39 8.49 8.81 8.74 8.27 7.59 7.04 6.35 5.66 5.27 4.98 4.76 4.65 4.18 2.81 1.59 -0.66 -2.51 -3.79 -2.18 -3.29 -5.50 -6.71 -7.47 -7.90 -9.62 -7.16 -4.99 -4.61 -4.44 -6.48 -5.37 -7.80 -5.02
6.85 7.09 7.16 7.45 7.33 7.65 7.92 8.09 7.66 7.02 6.88 6.64 6.53 6.24 5.91 5.58 5.41 5.09 4.51 3.54 2.38 1.56 1.90 0.30 -0.73 -2.28 -4.77 -7.77 -9.18 -10.21 -8.39 -7.84 -12.09 -10.70 -11.42 -8.94 -9.86 -11.20 -11.51 -9.60 -9.96 -6.99 -7.77
5.15 5.13 5.40 5.78 5.67 5.78 5.63 5.56 5.88 5.71 5.25 5.63 5.34 4.69 4.09 3.59 3.63 3.45 2.95 1.09 0.13 -0.31 -0.91 -1.37 -2.49 -6.19 -6.91 -7.39 -7.86 -5.76 -6.06 0.43 -3.67 -6.91 -10.99 -7.98 -9.52 -9.34 -10.38 -10.87 -11.85 -9.96 -8.44